Flag for Switzerland Weather past 2 weeks in Dübendorf, Zurich, Switzerland

Now
42 °F

Quite cool.


Feels Like: 38 °F
Forecast: 45 / 50 °F
Wind: 6 mph from Southwest

Location: Zurich Town / Ville.

Current Time: Dec 18, 2014 at 6:44:19 AM

Latest Report: Dec 18, 2014 at 6:00 AM


Visibility: N/A

Pressure: 30.11 "Hg

Humidity: 93%

Dew point: 40 °F

Location of DübendorfLocation

Historic Weather in Dübendorf — Graph

°F

Dübendorf temperature yesterday

Maximum temperature yesterday: 42 °F (at 1:00 PM)
Minimum temperature yesterday: 38 °F (at 5:00 PM)
Average temperature yesterday: 40 °F

Past Weeks' High & Low Weather Summary

 TemperatureHumidityPressure
High53 °F (Dec 13, 1:00 PM)100% (Dec 9, 2:00 AM)30.47 "Hg (Dec 9, 2:00 AM)
Low30 °F (Dec 10, 2:00 AM)43% (Dec 13, 1:00 PM)29.87 "Hg (Dec 12, 8:00 PM)
Average40 °F83%30.10 "Hg
* Reported Dec 3 5:00 AM — Dec 18 5:00 AM, Dübendorf, Weather by CustomWeather, © 2014

Note: Actual official high and low records may vary slightly from our data, if they occured in-between our weather recording intervals... More about our weather records

Advertising

Dübendorf weather history for previous 24 hours

 ConditionsComfort  
Time TempWeatherWind HumidityBarometerVisibility
5:00 AM
Dec 18
41 °FQuite cool.5 mph93%30.11 "HgN/A
3:00 AM41 °FQuite cool.5 mph95%30.11 "HgN/A
2:00 AM41 °FQuite cool.5 mph93%30.11 "HgN/A
1:00 AM40 °FQuite cool.5 mph94%30.10 "HgN/A
12:00 AM40 °FQuite cool.5 mph94%30.09 "HgN/A
11:00 PM
Dec 17
40 °FChilly.6 mph93%30.07 "HgN/A
10:00 PM40 °FChilly.6 mph93%30.06 "HgN/A
9:00 PM39 °FChilly.5 mph93%30.05 "HgN/A
8:00 PM39 °FChilly.6 mph92%30.03 "HgN/A
7:00 PM39 °FChilly.6 mph94%30.01 "HgN/A
6:00 PM38 °FChilly.9 mph93%29.98 "HgN/A
5:00 PM38 °FChilly.12 mph93%29.96 "HgN/A
4:00 PM39 °FChilly.10 mph91%29.94 "HgN/A
3:00 PM39 °FChilly.13 mph86%29.92 "HgN/A
2:00 PM42 °FQuite cool.10 mph77%29.91 "HgN/A
1:00 PM42 °FOvercast.9 mph71%29.94 "HgN/A
12:00 PM42 °FQuite cool.8 mph73%29.97 "HgN/A
11:00 AM42 °FQuite cool.8 mph75%30.00 "HgN/A
10:00 AM41 °FQuite cool.7 mph81%30.02 "HgN/A
9:00 AM41 °FQuite cool.5 mph84%30.03 "HgN/A
8:00 AM40 °FQuite cool.3 mph86%30.03 "HgN/A
7:00 AM40 °FQuite cool.3 mph85%30.03 "HgN/A
6:00 AM40 °FQuite cool.1 mph89%30.03 "HgN/A
Weather by CustomWeather, © 2014

See weather overviewHow to use our weather pages